Regional Weather Roundup
Issued by NWS

Home | Current Version | Previous Version | Text Only | Print | Product List | Glossary On
Versions: 1 2 3 4 5 6 7 8 9 10 11 12 13 14 15 16 17 18 19 20 21 22 23 24 25 26 27 28 29 30 31 32 33 34 35 36 37 38 39 40 41 42 43 44 45 46 47 48 49 50
000
ASUS43 KBIS 251110
RWRND

NORTH DAKOTA REGIONAL WEATHER ROUNDUP
NATIONAL WEATHER SERVICE BISMARCK ND
600 AM CDT TUE JUL 25 2017

NOTE: "FAIR" INDICATES FEW OR NO CLOUDS BELOW 12,000 FEET WITH NO
SIGNIFICANT WEATHER AND/OR OBSTRUCTIONS TO VISIBILITY.


NDZ001>003-009>011-017-251200-
NORTHWEST NORTH DAKOTA

CITY           SKY/WX    TMP DP  RH WIND       PRES   REMARKS
WILLISTON      CLOUDY    64  46  52 N7        29.98R
MINOT          CLOUDY    64  55  72 W7        29.89F
MINOT AFB      CLOUDY    64  52  66 W7        29.88F
$$

NDZ018>021-031>035-040>046-251200-
SOUTHWEST NORTH DAKOTA

CITY           SKY/WX    TMP DP  RH WIND       PRES   REMARKS
BISMARCK       CLEAR     65  64  97 E5        29.87R
DICKINSON      CLOUDY    65  52  62 N5        29.95R
GARRISON         N/A     62  55  77 N9        29.89R
HETTINGER ARPT MOCLDY    67  60  78 N9        29.94R
$$

NDZ004>008-012>016-024-026-027-054-251200-
NORTHEAST NORTH DAKOTA

CITY           SKY/WX    TMP DP  RH WIND       PRES   REMARKS
GRAND FORKS    CLOUDY    65  65 100 CALM      29.86R
GRND FRKS AFB  CLOUDY    64  64  99 CALM      29.88R
DEVILS LAKE    CLOUDY    67  65  93 S5        29.87R
$$

NDZ022-023-025-028>030-036>039-047>053-251200-
SOUTHEAST NORTH DAKOTA

CITY           SKY/WX    TMP DP  RH WIND       PRES   REMARKS
FARGO          PTCLDY    68  64  87 SE13G21   29.85S
JAMESTOWN      CLEAR     65  63  93 CALM      29.85R
$$





USA.gov is the U.S. government's official web portal to all federal, state and local government web resources and services.